Flag for U.S.A. Weather past 2 weeks in Nashville, Tennessee, U.S.A.

Now
69 °F

Clear.


Feels Like: 69 °F
Forecast: 58 / 85 °F
Wind: 5 mph from South

Location: Nashville International Airport

Current Time: May 5, 2015 at 10:27:57 PM

Latest Report: May 5, 2015 at 9:53 PM


Visibility: 10 mi

Pressure: 30.19 "Hg

Humidity: 63%

Dew point: 56 °F

Location of NashvilleLocation

Historic Weather in Nashville — Graph

°F

Nashville temperature yesterday

Maximum temperature yesterday: 84 °F (at 2:53 PM)
Minimum temperature yesterday: 55 °F (at 5:53 AM)
Average temperature yesterday: 70 °F

Past Weeks' High & Low Weather Summary

 TemperatureHumidityPressure
High86 °F (May 5, 2:53 PM)97% (Apr 21, 4:53 AM)30.29 "Hg (Apr 21, 4:53 AM)
Low40 °F (Apr 24, 5:53 AM)20% (Apr 24, 12:53 PM)29.46 "Hg (Apr 25, 6:53 PM)
Average61 °F59%29.97 "Hg
* Reported Apr 20 8:53 PM — May 5 8:53 PM, Nashville, Weather by CustomWeather, © 2015

Note: Actual official high and low records may vary slightly from our data, if they occured in-between our weather recording intervals... More about our weather records

Advertising

Nashville weather history for previous 24 hours

 ConditionsComfort  
Time TempWeatherWind HumidityBarometerVisibility
8:53 PM
Tue, May 5
73 °FClear.No wind51%30.18 "Hg10 mi
7:53 PM77 °FPassing clouds.No wind42%30.16 "Hg10 mi
6:53 PM80 °FPassing clouds.6 mph38%30.16 "Hg10 mi
5:53 PM83 °FPassing clouds.6 mph32%30.16 "Hg10 mi
4:53 PM85 °FScattered clouds.5 mph31%30.16 "Hg10 mi
3:53 PM86 °FPartly sunny.12 mph30%30.18 "Hg10 mi
2:53 PM86 °FPartly sunny.5 mph29%30.20 "Hg10 mi
1:53 PM85 °FScattered clouds.8 mph31%30.22 "Hg10 mi
12:53 PM83 °FScattered clouds.8 mph33%30.24 "Hg10 mi
11:53 AM83 °FPassing clouds.9 mph36%30.27 "Hg10 mi
10:53 AM81 °FPassing clouds.3 mph41%30.29 "Hg10 mi
9:53 AM77 °FSunny.3 mph48%30.29 "Hg10 mi
8:53 AM72 °FSunny.6 mph57%30.29 "Hg10 mi
7:53 AM65 °FSunny.5 mph73%30.28 "Hg9 mi
6:53 AM58 °FSunny.3 mph87%30.28 "Hg10 mi
5:53 AM57 °FPassing clouds.No wind87%30.26 "Hg10 mi
4:53 AM59 °FPassing clouds.No wind81%30.24 "Hg10 mi
3:53 AM58 °FPassing clouds.No wind84%30.23 "Hg10 mi
2:53 AM60 °FPassing clouds.No wind78%30.22 "Hg10 mi
1:53 AM60 °FPassing clouds.6 mph78%30.22 "Hg10 mi
12:53 AM62 °FClear.5 mph75%30.22 "Hg10 mi
11:53 PM
Mon, May 4
64 °FClear.3 mph73%30.21 "Hg10 mi
10:53 PM64 °FClear.3 mph73%30.21 "Hg10 mi
Weather by CustomWeather, © 2015

See weather overviewHow to use our weather pages